Tiempo atmosférico en la estación meteorológica de Hinojosa Del Duque, Córdoba (540 m.)



Fecha
DESCASC
Temp. máxima en grados centígrados (hora)
DESCASC
Temp. mínima en grados centígrados (hora)
DESCASC
Temp. media en grados centígrados
DESCASC
Racha de viento máxima en m/sg (hora)
DESCASC
Velocidad máxima media en intervalos de 10 minutos(hora)
DESCASC
Precipitaciones diarias en mm
DESCASC
Precipitaciones de 00:00 a 06:00 en mm
DESCASC
Precipitaciones de 06:00 a 12:00 en mm
DESCASC
Precipitaciones de 12:00 a 18:00 en mm
DESCASC
Precipitaciones de 18:00 a 24:00 en mm
DESCASC
24-01-2021 13.5 (13:50) 8.3 (23:30) 10.9 12.22 (00:10) 7.5 (06:00) 1.7 1.7 0 0 0
23-01-2021 12.3 (23:10) 4.9 (07:50) 8.6 13.06 (15:40) 8.61 (18:40) 0.4 0.1 0.1 0 0.2
22-01-2021 13.5 (04:10) 6 (22:40) 9.8 20 (15:20) 13.33 (04:20) 4.4 2.5 0 1.9 0
21-01-2021 14.3 (15:50) 8.9 (00:00) 11.6 12.5 (21:20) 8.61 (20:50) 0.8 0.2 0.1 0 0.5
20-01-2021 13.5 (16:30) 7 (00:00) 10.3 13.89 (08:10) 8.33 (08:00) 7.3 0 2.1 5.2 0
19-01-2021 13.6 (16:50) -0.3 (00:00) 6.7 6.67 (13:00) 4.17 (15:30) 0 0 0 0 0
18-01-2021 15.4 (15:40) -2.1 (-00:0) 6.6 2.5 (13:30) 1.94 (08:20) 0 0 0 0 0
17-01-2021 16.2 (16:40) -2 (-00:0) 7.1 3.06 (03:20) 2.5 (03:20) 0 0 0 0 0
16-01-2021 13.7 (15:40) -2 (-00:0) 5.8 3.33 (15:00) 2.5 (18:30) 0 0 0 0 0
15-01-2021 12 (16:20) -3.7 (-00:0) 4.1 3.89 (20:30) 1.94 (14:40) 0.1 0 0.1 0 0
14-01-2021 10.1 (17:10) -3.2 (08:40) 3.5 3.89 (15:00) 2.5 (15:00) 0 0 0 0 0
13-01-2021 11.4 (16:30) -3.4 (-00:0) 4 3.06 (14:20) 2.22 (19:30) 0 0 0 0 0
12-01-2021 8.6 (16:30) -5.1 (-00:0) 1.8 3.06 (00:30) 2.78 (00:40) 0 0 0 0 0
11-01-2021 7.5 (16:20) -2.2 (-00:0) 2.6 6.39 (13:00) 3.89 (07:50) 0 0 0 0 0
10-01-2021 7.1 (16:30) -0.5 (00:00) 3.3 7.22 (13:10) 3.89 (16:10) 0.1 0 0.1 0 0
09-01-2021 3.4 (15:40) -0.7 (-00:0) 1.4 8.33 (12:10) 5.28 (10:50) 2.8 2.2 0.3 0.3 0
08-01-2021 3.2 (11:50) 2.2 (00:00) 2.7 7.78 (09:50) 5 (22:40) 39.6 0 4.2 19.7 15.7
07-01-2021 4.3 (16:10) 2.2 (00:00) 3.3 7.78 (20:10) 4.72 (20:00) 4.3 2.4 1.5 0.4 0
06-01-2021 6.6 (15:40) -5.6 (-00:0) 0.5 4.44 (23:50) 2.78 (23:40) 1 0 0.1 0 0.9
05-01-2021 5.1 (15:50) -3.7 (-00:0) 0.7 3.33 (18:30) 2.22 (18:00) 0.1 0 0.1 0 0
04-01-2021 -- (--) -- (--) -- -- (--) -- (--) -- -- -- 0 0
03-01-2021 8.3 (16:40) -3 (-00:0) 2.7 6.11 (13:50) 4.17 (15:20) 0 0 0 0 0
02-01-2021 6.4 (15:50) -1.6 (-00:0) 2.4 7.5 (15:40) 5.56 (00:30) 0 0 0 0 0
01-01-2021 8.2 (15:40) 1.9 (00:00) 5 10.56 (00:30) 8.06 (11:40) 0 0 0 0 0
31-12-2020 8.7 (14:50) -2.8 (-00:0) 2.9 8.61 (20:10) 5.56 (20:10) 1.5 0 0 0 1.5
30-12-2020 8.3 (15:30) -1.2 (-00:0) 3.6 6.39 (01:10) 5 (01:20) 0 0 0 0 0
29-12-2020 9.6 (14:40) 1.4 (00:00) 5.5 10.83 (14:50) 7.5 (14:50) 0 0 0 0 0
28-12-2020 10.5 (13:40) 4 (00:00) 7.3 13.61 (06:10) 9.17 (06:20) 0.9 0 0.9 0 0
27-12-2020 10.9 (15:10) -4.1 (-00:0) 3.4 7.22 (21:10) 5.28 (19:00) 0 0 0 0 0
26-12-2020 9.1 (15:30) -0.7 (-00:0) 4.2 9.72 (04:50) 6.11 (04:40) 0 0 0 0 0

Gráficas

Temp. máximas Temp. mínimas Temp. medias Precipitaciones Rachas de viento máximas Velocidades máximas media en intervalos de 10 minutos

Datos horarios

Fecha y hora oficial Temperatura (ºC) Velocidad del viento (km/h) Dirección del viento Racha (km/h) Dirección de racha Precipitación (mm) Presión (hPa) Tendencia (hPa) Humedad (%)
2021-01-24 23:00:00 8.5 9 Sudoeste 16 Sudoeste 0 954 0.6 91
2021-01-24 22:00:00 9.2 11 Sudoeste 17 Sudoeste 0 953.6 0.4 89
2021-01-24 21:00:00 9.6 9 Sudoeste 15 Sudoeste 0 953.8 0.9 88
2021-01-24 20:00:00 10.9 5 Sudoeste 12 Oeste 0 953.4 0.9 85
2021-01-24 19:00:00 10.9 7 Oeste 18 Oeste 0 953.2 0.8 83
2021-01-24 18:00:00 11.5 12 Noroeste 30 Oeste 0 952.9 0.6 78
2021-01-24 17:00:00 12.9 23 Oeste 32 Oeste 0 952.5 -0.6 70
2021-01-24 16:00:00 12.2 24 Oeste 34 Oeste 0 952.4 -1.3 73
2021-01-24 15:00:00 12.4 22 Oeste 33 Oeste 0 952.3 -1.7 71
2021-01-24 14:00:00 13.2 22 Oeste 32 Oeste 0 953.1 -0.2 71
2021-01-24 13:00:00 12.1 21 Noroeste 28 Noroeste 0 953.7 0.9 75
2021-01-24 12:00:00 11.7 20 Oeste 36 Oeste 0 954 -- 76
2021-01-24 11:00:00 10.8 22 Oeste 33 Oeste 0 953.3 -- 82
2021-01-24 10:00:00 9.8 23 Oeste 31 Oeste 0 952.8 -- 85
2021-01-24 09:00:00 9.1 19 Oeste 28 Oeste 0 952.3 -- 90
2021-01-24 08:00:00 9.7 17 Oeste 30 Oeste 0 952 -- 88
2021-01-24 07:00:00 9.4 17 Oeste 35 Oeste 0 950.9 -- 88
2021-01-24 06:00:00 11.1 27 Oeste 35 Oeste 0 950.2 -- 82
2021-01-24 05:00:00 12.2 22 Oeste 31 Oeste 0.5 949.8 -- 95
2021-01-24 04:00:00 12.1 21 Oeste 31 Oeste 0.3 950 -- 96
2021-01-24 03:00:00 11.8 20 Oeste 38 Oeste 0.8 950.2 -- 96
2021-01-24 02:00:00 12.1 22 Sudoeste 41 Sudoeste 0 949.8 -- 93
2021-01-24 01:00:00 11.8 24 Sudoeste 44 Sudoeste 0.1 950.1 -- 92
2021-01-24 00:00:00 12 26 Oeste 46 Oeste 0.2 950.4 -- 92
2021-01-23 23:00:00 11.9 27 Oeste 41 Oeste 0 950.6 -- 92
2021-01-23 22:00:00 11.5 26 Sudoeste 39 Sudoeste 0 950.6 -- 93
2021-01-23 21:00:00 11 22 Sudoeste 38 Sudoeste 0 951.1 -- 94
2021-01-23 20:00:00 10.9 23 Sudoeste 40 Sudoeste 0 951.1 -- 93
2021-01-23 19:00:00 10.7 28 Sudoeste 45 Sudoeste 0 950.8 -- 92
2021-01-23 18:00:00 10.8 30 Sudoeste 44 Sudoeste 0 950.9 -- 87
2021-01-23 17:00:00 11.2 25 Sudoeste 41 Sudoeste 0 951.1 -- 83
2021-01-23 16:00:00 11.1 27 Sudoeste 47 Sudoeste 0 951.9 -- 79
2021-01-23 15:00:00 11.3 21 Sudoeste 38 Sudoeste 0 952 -- 74
2021-01-23 14:00:00 11.5 17 Oeste 37 Oeste 0 953.8 -- 74
2021-01-23 13:00:00 10.9 19 Sudoeste 33 Sudoeste 0 954.7 -- 76
2021-01-23 12:00:00 10.1 19 Oeste 32 Sudoeste 0 955.8 -- 81
2021-01-23 11:00:00 8.9 14 Sudoeste 25 Sudoeste 0 955.8 -- 86
2021-01-23 10:00:00 7.5 12 Sudoeste 17 Sudoeste 0 955.7 -- 92
2021-01-23 09:00:00 5.2 10 Sudoeste 21 Sudoeste 0 955.2 -- 95
2021-01-23 08:00:00 5.3 12 Sudoeste 18 Sudoeste 0.1 955.1 -- 96
2021-01-23 07:00:00 5.7 11 Oeste 16 Sudoeste 0 955.4 -- 94
2021-01-23 06:00:00 5.4 9 Oeste 21 Oeste 0 955.7 -- 95
2021-01-23 05:00:00 5.5 12 Sudoeste 22 Oeste 0 955.7 -- 94
2021-01-23 04:00:00 6.2 17 Oeste 26 Oeste 0 956.3 -- 93
2021-01-23 03:00:00 6.2 11 Oeste 23 Oeste 0 956 -- 93
2021-01-23 02:00:00 7 12 Sudoeste 21 Sudoeste 0.1 956.2 -- 93
2021-01-23 01:00:00 6.2 12 Sudoeste 19 Oeste 0 956.2 -- 92
2021-01-23 00:00:00 6.2 13 Sudoeste 20 Sudoeste 0 956.2 -- 87
2021-01-22 23:00:00 6.3 12 Sudoeste 20 Sudoeste 0 955.9 -- 89
2021-01-22 22:00:00 6.5 12 Oeste 19 Oeste 0 955.6 -- 90
2021-01-22 21:00:00 7.2 18 Oeste 24 Oeste 0 955.1 -- 87
2021-01-22 20:00:00 7.6 17 Oeste 40 Oeste 0 954.9 -- 84
2021-01-22 19:00:00 8.1 28 Oeste 38 Oeste 0 953.5 -- 78
2021-01-22 18:00:00 8.7 29 Oeste 40 Oeste 0 952.8 -- 76
2021-01-22 17:00:00 9.4 27 Oeste 56 Noroeste 0.1 952.5 -- 78
2021-01-22 16:00:00 10.2 36 Oeste 72 Noroeste 1.5 951.8 -- 74
2021-01-22 15:00:00 11.6 40 Oeste 62 Noroeste 0 950.9 -- 71
2021-01-22 14:00:00 11.9 41 Oeste 60 Oeste 0 951.1 -- 66
2021-01-22 13:00:00 9.8 33 Oeste 52 Oeste 0.3 951.8 -- 85
2021-01-22 12:00:00 10.1 37 Oeste 55 Oeste 0 952 -- 79
2021-01-22 11:00:00 11.4 25 Oeste 41 Oeste 0 951.5 -- 68
2021-01-22 10:00:00 9.9 19 Oeste 48 Oeste 0 951.1 -- 79
2021-01-22 09:00:00 9.8 25 Oeste 49 Oeste 0 950.3 -- 78
2021-01-22 08:00:00 11.1 31 Oeste 51 Oeste 0 949.4 -- 83
2021-01-22 07:00:00 11.5 35 Oeste 60 Oeste 0 948.9 -- 84
2021-01-22 06:00:00 11.9 37 Oeste 56 Oeste 0 947.9 -- 83
2021-01-22 05:00:00 12.5 38 Oeste 71 Oeste 0.1 948.7 -- 86
2021-01-22 04:00:00 13.4 21 Sudoeste 41 Sudoeste 0.4 948.4 -- 91
2021-01-22 03:00:00 12.8 22 Sudoeste 43 Sudoeste 1 948.6 -- 94
2021-01-22 02:00:00 12.5 23 Sudoeste 42 Sudoeste 0.5 949 -- 93
2021-01-22 01:00:00 11.4 19 Sur 33 Sudoeste 0.5 950.2 -- 95
2021-01-22 00:00:00 11.5 21 Sudoeste 36 Sudoeste 0 950.9 -- 92
2021-01-21 23:00:00 11.1 21 Sudoeste 42 Sudoeste 0.5 951.4 -- 94
2021-01-21 22:00:00 12.2 24 Sudoeste 45 Sudoeste 0 952 -- 83
2021-01-21 21:00:00 11.9 24 Sudoeste 44 Sudoeste 0 952.2 -- 83
2021-01-21 20:00:00 11.8 26 Sudoeste 39 Sudoeste 0 952.7 -- 89
2021-01-21 19:00:00 12.8 27 Sudoeste 39 Sudoeste 0 952.3 -- 83
2021-01-21 18:00:00 12.9 14 Sudoeste 29 Oeste 0 952.5 -- 82
2021-01-21 17:00:00 13.6 22 Sudoeste 37 Sudoeste 0 952.7 -- 76
2021-01-21 16:00:00 13.7 22 Sudoeste 38 Sudoeste 0 952.9 -- 77
2021-01-21 15:00:00 13.6 23 Sudoeste 40 Oeste 0 953.1 -- 75
2021-01-21 14:00:00 13.7 23 Sudoeste 44 Sudoeste 0 953.6 -- 73
2021-01-21 13:00:00 13.6 26 Sudoeste 37 Sudoeste 0 953.9 -- 71
2021-01-21 12:00:00 12.9 21 Sudoeste 40 Sudoeste 0 954.9 -- 79
2021-01-21 11:00:00 10.9 24 Sudoeste 34 Sudoeste 0 954.5 -- 85
2021-01-21 10:00:00 10 19 Sudoeste 28 Oeste 0 954 -- 90
2021-01-21 09:00:00 9.6 14 Sudoeste 24 Sudoeste 0 953 -- 91
2021-01-21 08:00:00 9.4 16 Sudoeste 22 Sudoeste 0 953.1 -- 92
2021-01-21 07:00:00 9.3 10 Sudoeste 28 Sudoeste 0.1 952.4 -- 95
2021-01-21 06:00:00 9.5 18 Sudoeste 27 Sudoeste 0 952.2 -- 93
2021-01-21 05:00:00 9.4 14 Sudoeste 23 Sudoeste 0 952 -- 95
2021-01-21 04:00:00 9.3 14 Sudoeste 21 Sudoeste 0 952 -- 95
2021-01-21 03:00:00 9.4 14 Sudoeste 23 Sudoeste 0 951.4 -- 94
2021-01-21 02:00:00 9 19 Sudoeste 28 Sudoeste 0 950.8 -- 94
2021-01-21 01:00:00 9.1 16 Sudoeste 25 Sudoeste 0.2 950.6 -- 94
2021-01-21 00:00:00 9.2 14 Sudoeste 23 Sudoeste 0 950.4 -- 89
2021-01-20 23:00:00 9.2 15 Sudoeste 28 Sudoeste 0 949.8 -- 90
2021-01-20 22:00:00 9.3 18 Sudoeste 32 Oeste 0 949.3 -- 88
2021-01-20 21:00:00 9.9 21 Oeste 43 Oeste 0 948.9 -- 86
2021-01-20 20:00:00 10.6 28 Oeste 39 Oeste 0 947.9 -- 85
2021-01-20 19:00:00 10.8 17 Sudoeste 30 Sudoeste 0 946.9 -- 82
2021-01-20 18:00:00 12 15 Sudoeste 31 Sudoeste 0 946.4 -- 81
2021-01-20 17:00:00 13.4 22 Sudoeste 40 Sudoeste 0.1 945.7 -- 78
2021-01-20 16:00:00 12.3 16 Sudoeste 28 Sur 0 946 -- 84
2021-01-20 15:00:00 12 19 Sur 31 Sur 0.4 946 -- 89
2021-01-20 14:00:00 10.9 15 Sudoeste 24 Sudoeste 2.3 946.9 -- 94
2021-01-20 13:00:00 10 10 Sudoeste 25 Sur 2.4 948 -- 95
2021-01-20 12:00:00 9.7 13 Sur 23 Sur 0.5 948.7 -- 94
2021-01-20 11:00:00 9.3 22 Sur 31 Sur 1.2 948.7 -- 94
2021-01-20 10:00:00 9.3 18 Sudoeste 40 Sudoeste 0.3 949.1 -- 89
2021-01-20 09:00:00 9.2 22 Sudoeste 50 Sur 0 949.1 -- 89
2021-01-20 08:00:00 8.9 30 Sur 49 Sudoeste 0.1 948.5 -- 89
2021-01-20 07:00:00 8.9 24 Sur 41 Sur 0 949.1 -- 85
2021-01-20 06:00:00 8.9 19 Sur 32 Sur 0 950.1 -- 83
2021-01-20 05:00:00 8.9 17 Sur 28 Sur 0 950.8 -- 82
2021-01-20 04:00:00 8.9 15 Sur 26 Sur 0 952.4 -- 82
2021-01-20 03:00:00 8.6 17 Sur 25 Sur 0 952.8 -- 83
2021-01-20 02:00:00 8.6 11 Sudoeste 21 Sur 0 953.7 -- 83
2021-01-20 01:00:00 7.6 8 Sudeste 12 Sudeste 0 954.4 -- 85
2021-01-20 00:00:00 7.3 4 Este 8 Este 0 955.2 -- 83
2021-01-19 23:00:00 6.9 4 Este 6 Sudeste 0 955.3 -- 84
2021-01-19 22:00:00 7.2 5 Sudeste 16 Sudoeste 0 955.5 -- 79
2021-01-19 21:00:00 8.6 10 Sur 21 Sudoeste 0 956.2 -- 76
2021-01-19 20:00:00 6.8 10 Sudoeste 15 Sudoeste 0 956.7 -- 83
2021-01-19 19:00:00 8.5 9 Sudoeste 14 Sudoeste 0 956.7 -- 73
2021-01-19 18:00:00 11 8 Sur 14 Sur 0 956.5 -- 63
2021-01-19 17:00:00 13.5 6 Sur 17 Sudoeste 0 956.8 -- 57
2021-01-19 16:00:00 13 10 Sudoeste 20 Oeste 0 957.3 -- 59
2021-01-19 15:00:00 12.6 11 Sudoeste 22 Sudoeste 0 957.8 -- 60
2021-01-19 14:00:00 13.3 14 Sudoeste 21 Sudoeste 0 958.5 -- 55
2021-01-19 13:00:00 12.1 12 Sur 24 Sudoeste 0 959.6 -- 59
2021-01-19 12:00:00 11.3 5 Sudoeste 10 Sudoeste 0 960.3 -- 69
2021-01-19 11:00:00 8.3 6 Sudeste 9 Sudeste 0 960.3 -- 80
2021-01-19 10:00:00 4.9 3 Sudeste 9 Sudeste 0 960.4 -- 88
2021-01-19 09:00:00 1.7 8 Sudeste 10 Sudeste 0 960.3 -- 94
2021-01-19 08:00:00 0.8 7 Sudeste 10 Sudeste 0 960.3 -- 93
2021-01-19 07:00:00 0 5 Sur 8 Sudeste 0 960.4 -- 89
2021-01-19 06:00:00 1.1 7 Este 9 Este 0 960.3 -- 81
2021-01-19 05:00:00 3 2 Este 8 Sur 0 960.6 -- 75
2021-01-19 04:00:00 2.9 6 Sur 10 Sur 0 961 -- 73
2021-01-19 03:00:00 3.4 6 Sur 8 Sur 0 961 -- 71
2021-01-19 02:00:00 3.4 3 Sur 9 Sur 0 961.3 -- 76
2021-01-19 01:00:00 3.7 3 Sur 5 Sudoeste 0 961.5 -- 69
2021-01-19 00:00:00 4.5 0 Calma 4 Nordeste 0 961.6 -- 65
2021-01-18 23:00:00 5.2 0 Calma 5 Sudeste 0 961.2 -- 64
2021-01-18 22:00:00 5.1 3 Sudeste 7 Sur 0 961 -- 62
2021-01-18 21:00:00 6.3 0 Calma 4 Sur 0 960.9 -- 60
2021-01-18 20:00:00 7.3 0 Calma 4 Oeste 0 960.9 -- 56
2021-01-18 19:00:00 10 0 Calma 4 Noroeste 0 960.6 -- 48
2021-01-18 18:00:00 13.5 4 Norte 6 Norte 0 960 -- 44
2021-01-18 17:00:00 14.5 4 Norte 8 Norte 0 960 -- 40
2021-01-18 16:00:00 14.9 5 Norte 8 Norte 0 960 -- 39
2021-01-18 15:00:00 14.7 3 Norte 8 Nordeste 0 960.2 -- 38
2021-01-18 14:00:00 14.3 0 Calma 9 Sur 0 960.8 -- 41
2021-01-18 13:00:00 11.4 4 Este 7 Este 0 961.6 -- 44
2021-01-18 12:00:00 8.9 2 Este 7 Este 0 962.3 -- 52
2021-01-18 11:00:00 5.4 4 Este 8 Este 0 962.4 -- 68
2021-01-18 10:00:00 3 4 Este 7 Sur 0 962 -- 71
2021-01-18 09:00:00 -0.8 3 Sudoeste 8 Sur 0 961.9 -- 87
2021-01-18 08:00:00 -1.3 4 Sur 6 Sur 0 961.8 -- 88
2021-01-18 07:00:00 -1.3 3 Sur 4 Sur 0 961.5 -- 87
2021-01-18 06:00:00 1.1 3 Norte 4 Norte 0 961.3 -- 81
2021-01-18 05:00:00 0.3 0 Calma 3 Oeste 0 961.2 -- 82
2021-01-18 04:00:00 1.1 0 Calma 4 Oeste 0 961.5 -- 78
2021-01-18 03:00:00 2.4 3 Noroeste 6 Noroeste 0 961.9 -- 70
2021-01-18 02:00:00 2.4 2 Oeste 3 Oeste 0 961.9 -- 70
2021-01-18 01:00:00 2.8 2 Sur 6 Sur 0 962.3 -- 65
2021-01-18 00:00:00 2.2 5 Sur 10 Norte 0 962.5 -- 67
2021-01-17 23:00:00 4.9 7 Norte 9 Norte 0 962.2 -- 56
2021-01-17 22:00:00 8.9 6 Norte 8 Norte 0 961.9 -- 38
2021-01-17 21:00:00 6.6 0 Calma 4 Nordeste 0 962.1 -- 45
2021-01-17 20:00:00 7.3 0 Calma 0 Calma 0 962.1 -- 50
2021-01-17 19:00:00 10.2 2 Noroeste 5 Noroeste 0 962.2 -- 40
2021-01-17 18:00:00 13.9 3 Noroeste 4 Noroeste 0 962 -- 37
2021-01-17 17:00:00 15.6 2 Noroeste 6 Oeste 0 962.1 -- 28
2021-01-17 16:00:00 15.5 3 Oeste 10 Norte 0 962.5 -- 31
2021-01-17 15:00:00 14.4 4 Noroeste 9 Noroeste 0 962.7 -- 38
2021-01-17 14:00:00 13.7 3 Norte 8 Noroeste 0 963.4 -- 47
2021-01-17 13:00:00 10.8 4 Norte 8 Norte 0 964.1 -- 58
2021-01-17 12:00:00 9.4 0 Calma 4 Este 0 964.9 -- 68
2021-01-17 11:00:00 4.4 0 Calma 5 Noroeste 0 964.6 -- 80
2021-01-17 10:00:00 2.8 0 Calma 4 Sur 0 964.3 -- 85
2021-01-17 09:00:00 -0.9 4 Sur 6 Sur 0 963.8 -- 94
2021-01-17 08:00:00 -1.5 0 Calma 9 Sudeste 0 963.8 -- 92
2021-01-17 07:00:00 -0.7 4 Sudeste 5 Sudeste 0 963.3 -- 93
2021-01-17 06:00:00 -1.9 5 Sudeste 5 Sudeste 0 963.6 -- 90
2021-01-17 05:00:00 0.4 3 Noroeste 9 Norte 0 963.5 -- 88
2021-01-17 04:00:00 2 6 Sur 11 Sur 0 963.8 -- 83
2021-01-17 03:00:00 0.1 8 Sur 10 Sur 0 964 -- 90
2021-01-17 02:00:00 2.2 2 Sudoeste 7 Sur 0 964.4 -- 90
2021-01-17 01:00:00 3.8 2 Noroeste 5 Noroeste 0 964.5 -- 82
2021-01-17 00:00:00 2.7 0 Calma 4 Nordeste 0 964.6 -- 86
2021-01-16 23:00:00 3.1 0 Calma 3 Sudoeste 0 964.5 -- 86
2021-01-16 22:00:00 3.9 0 Calma 6 Noroeste 0 964.1 -- 80
2021-01-16 21:00:00 6.5 6 Noroeste 8 Oeste 0 963.6 -- 69
2021-01-16 20:00:00 7.3 5 Noroeste 8 Noroeste 0 963.5 -- 63
2021-01-16 19:00:00 7.3 3 Oeste 10 Noroeste 0 963.2 -- 65
2021-01-16 18:00:00 10.9 5 Noroeste 9 Norte 0 962.6 -- 61
2021-01-16 17:00:00 13.5 6 Norte 11 Norte 0 962.2 -- 46
2021-01-16 16:00:00 13.6 4 Norte 12 Nordeste 0 962.4 -- 38
2021-01-16 15:00:00 12.5 4 Nordeste 12 Nordeste 0 962.6 -- 46
2021-01-16 14:00:00 11.3 4 Norte 10 Noroeste 0 963 -- 52
2021-01-16 13:00:00 10.4 2 Norte 8 Noroeste 0 963.4 -- 56
2021-01-16 12:00:00 8.7 0 Calma 5 Sudeste 0 964.1 -- 70
2021-01-16 11:00:00 4.6 0 Calma 4 Noroeste 0 963.6 -- 87
2021-01-16 10:00:00 1.7 0 Calma 3 Sudoeste 0 962.8 -- 97
2021-01-16 09:00:00 -1.5 2 Sur 3 Sudoeste 0 962.5 -- 97
2021-01-16 08:00:00 -0.9 0 Calma 3 Oeste 0 962.3 -- 97
2021-01-16 07:00:00 -1 2 Oeste 4 Oeste 0 962.1 -- 96
2021-01-16 06:00:00 -0.9 3 Oeste 4 Oeste 0 961.8 -- 96
2021-01-16 05:00:00 -0.8 4 Oeste 8 Oeste 0 961.7 -- 95
2021-01-16 04:00:00 -0.2 2 Noroeste 4 Noroeste 0 961.9 -- 95
2021-01-16 03:00:00 1.1 4 Noroeste 6 Noroeste 0 961.8 -- 95
2021-01-16 02:00:00 1.9 4 Noroeste 9 Norte 0 961.9 -- 92
2021-01-16 01:00:00 1.3 2 Noroeste 4 Oeste 0 962.2 -- 93
2021-01-16 00:00:00 2.7 3 Noroeste 6 Noroeste 0 962.5 -- 92
2021-01-15 23:00:00 3.6 5 Noroeste 6 Noroeste 0 962.3 -- 90
2021-01-15 22:00:00 4.6 4 Noroeste 5 Noroeste 0 962 -- 83
2021-01-15 21:00:00 3.8 2 Nordeste 14 Este 0 961.6 -- 83
2021-01-15 20:00:00 4.9 2 Noroeste 4 Noroeste 0 961.3 -- 80
2021-01-15 19:00:00 6.7 4 Noroeste 7 Norte 0 961.1 -- 74
2021-01-15 18:00:00 9.3 6 Norte 9 Norte 0 961.1 -- 65
2021-01-15 17:00:00 11.4 6 Norte 9 Norte 0 961.1 -- 56
2021-01-15 16:00:00 11.5 4 Nordeste 11 Nordeste 0 961.1 -- 53
2021-01-15 15:00:00 10.8 6 Norte 12 Norte 0 961.1 -- 62
2021-01-15 14:00:00 9.9 4 Norte 9 Norte 0 961.5 -- 65
2021-01-15 13:00:00 7.7 5 Norte 9 Norte 0 962.6 -- 72
2021-01-15 12:00:00 5.6 4 Noroeste 8 Norte 0 963.4 -- 82
2021-01-15 11:00:00 3.3 0 Calma 4 Oeste 0 963.1 -- 92
2021-01-15 10:00:00 -0.2 0 Calma 6 Noroeste 0.1 962.9 -- 97
2021-01-15 09:00:00 -1.8 6 Noroeste 7 Noroeste 0 962.6 -- 98
2021-01-15 08:00:00 -2.7 3 Oeste 7 Oeste 0 962 -- 97
2021-01-15 07:00:00 -3.7 4 Sudoeste 5 Sur 0 961.9 -- 96
2021-01-15 06:00:00 -2.3 4 Oeste 5 Oeste 0 962 -- 98
2021-01-15 05:00:00 -2.5 3 Noroeste 7 Noroeste 0 962.2 -- 97
2021-01-15 04:00:00 -1.5 2 Oeste 4 Oeste 0 961.9 -- 97
2021-01-15 03:00:00 -0.8 0 Calma 3 Norte 0 962 -- 97
2021-01-15 02:00:00 0.8 2 Noroeste 3 Norte 0 962.4 -- 98
2021-01-15 01:00:00 -0.6 4 Sudoeste 6 Sudoeste 0 962.4 -- 96
2021-01-15 00:00:00 -0.1 0 Calma 3 Oeste 0 962.4 -- 95
2021-01-14 23:00:00 1.2 0 Calma 5 Oeste 0 962.1 -- 95
2021-01-14 22:00:00 2.1 4 Oeste 8 Oeste 0 961.8 -- 93
2021-01-14 21:00:00 3.2 5 Oeste 7 Oeste 0 961.7 -- 92
2021-01-14 20:00:00 3.8 4 Oeste 6 Oeste 0 961.3 -- 87
2021-01-14 19:00:00 5.4 4 Noroeste 7 Noroeste 0 961 -- 81
2021-01-14 18:00:00 9.7 0 Calma 10 Noroeste 0 960.6 -- 67
2021-01-14 17:00:00 9.9 5 Noroeste 14 Noroeste 0 960.7 -- 58
2021-01-14 16:00:00 9.7 7 Noroeste 13 Noroeste 0 960.7 -- 60
2021-01-14 15:00:00 9.1 9 Noroeste 14 Noroeste 0 960.5 -- 61
2021-01-14 14:00:00 8.4 6 Noroeste 11 Oeste 0 961.3 -- 66
2021-01-14 13:00:00 7 3 Noroeste 8 Norte 0 962 -- 71
2021-01-14 12:00:00 5.4 4 Noroeste 7 Noroeste 0 962.8 -- 71
2021-01-14 11:00:00 3.3 2 Oeste 4 Noroeste 0 962.6 -- 81
2021-01-14 10:00:00 1 0 Calma 3 Este 0 962.5 -- 90
2021-01-14 09:00:00 -2.2 0 Calma 3 Este 0 962.5 -- 95
2021-01-14 08:00:00 -2.8 0 Calma 5 Este 0 962.3 -- 93
2021-01-14 07:00:00 -2 2 Nordeste 6 Noroeste 0 962.2 -- 89
2021-01-14 06:00:00 -1.2 4 Noroeste 6 Oeste 0 962.1 -- 87
2021-01-14 05:00:00 -0.6 5 Sudoeste 6 Sur 0 962.4 -- 86
2021-01-14 04:00:00 -1.2 5 Sur 8 Sudeste 0 962.8 -- 88
2021-01-14 03:00:00 -1.3 6 Sudeste 7 Sudeste 0 963 -- 88
2021-01-14 02:00:00 0.9 0 Calma 3 Sudoeste 0 963.2 -- 83
2021-01-14 01:00:00 1.4 3 Sudoeste 6 Oeste 0 963.5 -- 83
2021-01-14 00:00:00 0.6 4 Sudoeste 7 Sudoeste 0 963.8 -- 86
2021-01-13 23:00:00 1 7 Sudoeste 8 Sudoeste 0 963.7 -- 83
2021-01-13 22:00:00 2 2 Sudoeste 7 Oeste 0 963.8 -- 78
2021-01-13 21:00:00 2.5 4 Oeste 6 Oeste 0 963.6 -- 74
2021-01-13 20:00:00 4 4 Noroeste 9 Noroeste 0 963.5 -- 69
2021-01-13 19:00:00 5.2 7 Noroeste 10 Noroeste 0 963.1 -- 65
2021-01-13 18:00:00 9.6 2 Noroeste 8 Noroeste 0 962.6 -- 53
2021-01-13 17:00:00 10.9 6 Noroeste 10 Oeste 0 962.8 -- 50
2021-01-13 16:00:00 11 5 Noroeste 11 Noroeste 0 962.8 -- 42
2021-01-13 15:00:00 10.4 6 Noroeste 11 Noroeste 0 962.8 -- 45
2021-01-13 14:00:00 9.3 6 Noroeste 10 Noroeste 0 963.5 -- 44
2021-01-13 13:00:00 7.6 4 Norte 7 Noroeste 0 964.6 -- 52
2021-01-13 12:00:00 5.1 4 Noroeste 8 Noroeste 0 965.2 -- 67
2021-01-13 11:00:00 2.7 3 Noroeste 5 Oeste 0 965.1 -- 76
2021-01-13 10:00:00 -0.3 0 Calma -- -- 0 964.8 -- 83
2021-01-13 09:00:00 -2.2 0 Calma 6 Oeste 0 964.5 -- 84
2021-01-13 08:00:00 -2.5 5 Oeste 6 Oeste 0 964 -- 87
2021-01-13 07:00:00 -2.7 3 Sur 4 Sur 0 963.9 -- 89
2021-01-13 06:00:00 -2.8 0 Calma 3 Sur 0 963.7 -- 85
2021-01-13 05:00:00 -2.7 0 Calma 4 Sur 0 964 -- 86
2021-01-13 04:00:00 -2 0 Calma 3 Noroeste 0 964.2 -- 85
2021-01-13 03:00:00 -2 0 Calma 5 Norte 0 964.3 -- 77
2021-01-13 02:00:00 0.2 3 Noroeste 5 Oeste 0 964.5 -- 75
2021-01-13 01:00:00 0.4 0 Calma 8 Sudoeste 0 964.9 -- 69
2021-01-13 00:00:00 -0.8 2 Noroeste 6 Sudoeste 0 964.9 -- 77
2021-01-12 23:00:00 1.7 3 Norte 5 Norte 0 964.9 -- 65
2021-01-12 22:00:00 1.4 4 Oeste 6 Oeste 0 964.5 -- 67
2021-01-12 21:00:00 2.8 4 Oeste 6 Noroeste 0 964.3 -- 62
2021-01-12 20:00:00 2.8 4 Oeste 7 Sudoeste 0 963.9 -- 65
2021-01-12 19:00:00 4.1 0 Calma 6 Noroeste 0 963.4 -- 58
2021-01-12 18:00:00 7.6 3 Noroeste 8 Noroeste 0 963.4 -- 53
2021-01-12 17:00:00 8.3 6 Noroeste 9 Noroeste 0 963 -- 44
2021-01-12 16:00:00 8.3 3 Norte 9 Este 0 962.8 -- 43
2021-01-12 15:00:00 7.8 4 Nordeste 10 Este 0 962.8 -- 42
2021-01-12 14:00:00 6.6 3 Este 11 Este 0 963.3 -- 49
2021-01-12 13:00:00 4.7 5 Nordeste 10 Nordeste 0 963.9 -- 50
2021-01-12 12:00:00 3.6 6 Este 9 Este 0 964.6 -- 60
2021-01-12 11:00:00 2.1 3 Este 6 Este 0 964.3 -- 66
2021-01-12 10:00:00 -0.6 0 Calma 5 Sudeste 0 963.7 -- 77
2021-01-12 09:00:00 -4.6 5 Sudeste 5 Sudeste 0 963.5 -- 87
2021-01-12 08:00:00 -3.7 3 Noroeste 5 Noroeste 0 963.2 -- 82
2021-01-12 07:00:00 -4 3 Noroeste 5 Oeste 0 962.5 -- 86
2021-01-12 06:00:00 -4.6 4 Oeste 5 Oeste 0 961.9 -- 86
2021-01-12 05:00:00 -4.4 0 Calma 3 Sudoeste 0 961.7 -- 85
2021-01-12 04:00:00 -4.3 0 Calma 5 Sur 0 961.8 -- 84
2021-01-12 03:00:00 -3.4 0 Calma 6 Norte 0 961.3 -- 81
2021-01-12 02:00:00 -3.1 4 Noroeste 7 Noroeste 0 961.1 -- 83
2021-01-12 01:00:00 -2.7 6 Norte 11 Norte 0 960.9 -- 80
2021-01-12 00:00:00 1 4 Nordeste 13 Nordeste 0 960.6 -- 58
2021-01-11 23:00:00 1.1 6 Nordeste 14 Este 0 959.9 -- 60
2021-01-11 22:00:00 1.1 10 Nordeste 15 Nordeste 0 959.3 -- 62
2021-01-11 21:00:00 1.5 8 Nordeste 14 Este 0 959 -- 64
2021-01-11 20:00:00 3.1 11 Nordeste 15 Este 0 958.2 -- 57
2021-01-11 19:00:00 3.9 6 Nordeste 12 Nordeste 0 957.3 -- 54
2021-01-11 18:00:00 5.3 6 Nordeste 17 Nordeste 0 956.8 -- 55
2021-01-11 17:00:00 6.8 11 Nordeste 21 Nordeste 0 956.2 -- 53
2021-01-11 16:00:00 7.4 9 Nordeste 19 Nordeste 0 955.5 -- 57
2021-01-11 15:00:00 7.1 10 Nordeste 20 Nordeste 0 955 -- 57
2021-01-11 14:00:00 6.2 7 Nordeste 21 Este 0 954.9 -- 60
2021-01-11 13:00:00 5 12 Nordeste 23 Nordeste 0 955.4 -- 61
2021-01-11 12:00:00 3.8 10 Nordeste 20 Nordeste 0 955.9 -- 62
2021-01-11 11:00:00 2.2 13 Norte 19 Sur 0 955.2 -- 77
2021-01-11 10:00:00 0.3 5 Noroeste 9 Nordeste 0 954.3 -- 87
2021-01-11 09:00:00 -0.5 5 Este 17 Norte 0 953.5 -- 85
2021-01-11 08:00:00 -1.3 12 Norte 17 Norte 0 952.9 -- 91
2021-01-11 07:00:00 -1.4 9 Norte 14 Norte 0 952.2 -- 88
2021-01-11 06:00:00 0.5 10 Norte 16 Norte 0 951.8 -- 87
2021-01-11 05:00:00 -0.9 3 Noroeste 13 Noroeste 0 951.4 -- 90
2021-01-11 04:00:00 1.2 6 Norte 14 Nordeste 0 951.4 -- 87
2021-01-11 03:00:00 1.2 8 Nordeste 17 Nordeste 0 951.3 -- 90
2021-01-11 02:00:00 -0.5 2 Norte 10 Nordeste 0 951 -- 93
2021-01-11 01:00:00 1.1 6 Nordeste 13 Este 0 950.5 -- 91
2021-01-11 00:00:00 1.1 7 Nordeste 15 Este 0 950.3 -- 91
2021-01-10 23:00:00 1 5 Nordeste 11 Nordeste 0 949.9 -- 89
2021-01-10 22:00:00 -0.2 6 Norte 13 Noroeste 0 949.6 -- 91
2021-01-10 21:00:00 1.3 3 Norte 14 Nordeste 0 949 -- 85
2021-01-10 20:00:00 3 6 Nordeste 16 Nordeste 0 948.3 -- 79
2021-01-10 19:00:00 4.7 10 Nordeste 19 Nordeste 0 947.6 -- 76
2021-01-10 18:00:00 5 8 Este 20 Este 0 946.8 -- 76
2021-01-10 17:00:00 6.2 14 Este 22 Nordeste 0 946.2 -- 66
2021-01-10 16:00:00 6.8 12 Nordeste 22 Nordeste 0 945.4 -- 66
2021-01-10 15:00:00 6.7 11 Nordeste 21 Este 0 945.1 -- 68
2021-01-10 14:00:00 5.6 10 Nordeste 26 Norte 0 945 -- 73
2021-01-10 13:00:00 5.1 10 Nordeste 17 Norte 0 945.2 -- 79
2021-01-10 12:00:00 3.7 6 Norte 12 Norte 0 945.8 -- 85
2021-01-10 11:00:00 3.3 5 Sudeste 10 Nordeste 0 945.1 -- 90
2021-01-10 10:00:00 1.4 0 Calma 10 Este 0.1 944.5 -- 95
2021-01-10 09:00:00 1.2 5 Este 8 Este 0 943.4 -- 96
2021-01-10 08:00:00 0.4 3 Nordeste 13 Este 0 942.7 -- 95
2021-01-10 07:00:00 1.2 8 Este 17 Nordeste 0 942 -- 95
2021-01-10 06:00:00 1.2 8 Este 15 Este 0 941.6 -- 95
2021-01-10 05:00:00 0.1 4 Este 9 Este 0 941.5 -- 97
2021-01-10 04:00:00 0 5 Este 14 Este 0 941.2 -- 96
2021-01-10 03:00:00 0.2 13 Este 16 Este 0 940.9 -- 96
2021-01-10 02:00:00 0.9 6 Nordeste 10 Nordeste 0 940.7 -- 96
2021-01-10 01:00:00 -0.1 0 Calma 6 Sudeste 0 940.7 -- 96
2021-01-10 00:00:00 -0.5 5 Sudeste 12 Este 0 940.6 -- 96
2021-01-09 23:00:00 -0.6 9 Este 10 Este 0 940.5 -- 95
2021-01-09 22:00:00 0.9 3 Sudeste 6 Sur 0 940.2 -- 95
2021-01-09 21:00:00 0.3 0 Calma 10 Sudeste 0 940 -- 94
2021-01-09 20:00:00 1.9 7 Sudeste 11 Este 0 939.7 -- 95
2021-01-09 19:00:00 2.6 4 Nordeste 6 Nordeste 0 939.4 -- 93
2021-01-09 18:00:00 3.1 0 Calma 8 Sur 0 939.1 -- 91
2021-01-09 17:00:00 3.4 4 Sur 13 Oeste 0.3 939 -- 91
2021-01-09 16:00:00 3.3 8 Oeste 21 Oeste 0 938.4 -- 86
2021-01-09 15:00:00 3 15 Oeste 26 Sudoeste 0 938.1 -- 86
2021-01-09 14:00:00 2.6 17 Oeste 28 Sudoeste 0 938.3 -- 87
2021-01-09 13:00:00 2.4 15 Sudoeste 30 Oeste 0 938.5 -- 92
2021-01-09 12:00:00 2.6 19 Sudoeste 27 Oeste 0 938.8 -- 92
2021-01-09 11:00:00 2.3 17 Sudoeste 29 Sudoeste 0 938.7 -- 95
2021-01-09 10:00:00 2.1 14 Sudoeste 22 Sudoeste 0 937.7 -- 95
2021-01-09 09:00:00 1.9 12 Sudoeste 19 Sudoeste 0.1 937.1 -- 96
2021-01-09 08:00:00 2 9 Sudoeste 16 Sudoeste 0.1 936.5 -- 97
2021-01-09 07:00:00 1.8 12 Oeste 19 Oeste 0.1 936 -- 97
2021-01-09 06:00:00 1.8 10 Oeste 18 Oeste 0 935.6 -- 97
2021-01-09 05:00:00 2.3 10 Oeste 17 Oeste 0.4 935.7 -- 97
2021-01-09 04:00:00 2.5 9 Oeste 15 Oeste 0.3 935.9 -- 98
2021-01-09 03:00:00 2.7 10 Oeste 15 Oeste 0.1 935.5 -- 98
2021-01-09 02:00:00 2.9 10 Noroeste 16 Noroeste 0.7 935.4 -- 98
2021-01-09 01:00:00 3.3 9 Noroeste 17 Nordeste 0.7 935.3 -- 98
2021-01-09 00:00:00 2.9 9 Nordeste 25 Nordeste 0.9 935 -- 98
2021-01-08 23:00:00 2.9 14 Norte 23 Norte 0.7 935 -- 98
2021-01-08 22:00:00 3 12 Norte 18 Norte 4.1 934.8 -- 98
2021-01-08 21:00:00 3.2 9 Norte 14 Norte 2.1 934.9 -- 98
2021-01-08 20:00:00 3.1 7 Nordeste 17 Nordeste 2.6 935.2 -- 98
2021-01-08 19:00:00 3 14 Nordeste 22 Nordeste 5.3 934.9 -- 98
2021-01-08 18:00:00 3.1 10 Nordeste 23 Nordeste 4.6 935.7 -- 98
2021-01-08 17:00:00 3.2 15 Nordeste 22 Nordeste 4.8 935.8 -- 98
2021-01-08 16:00:00 2.9 13 Nordeste 20 Nordeste 4.5 936.5 -- 97
2021-01-08 15:00:00 3 12 Nordeste 20 Nordeste 2.9 937.2 -- 97
2021-01-08 14:00:00 3.1 12 Nordeste 22 Norte 1.6 938.1 -- 96
2021-01-08 13:00:00 2.9 10 Nordeste 22 Nordeste 1.3 939.1 -- 96
2021-01-08 12:00:00 3.2 12 Nordeste 27 Nordeste 0.4 940.4 -- 94
2021-01-08 11:00:00 2.9 14 Nordeste 26 Nordeste 0.5 941.1 -- 93
2021-01-08 10:00:00 2.3 13 Nordeste 28 Nordeste 0.4 941.3 -- 96
2021-01-08 09:00:00 2.3 12 Nordeste 18 Nordeste 1.4 941.2 -- 96
2021-01-08 08:00:00 2.4 7 Nordeste 15 Nordeste 1.2 941.1 -- 94
2021-01-08 07:00:00 2.4 12 Nordeste 21 Nordeste 0.3 941 -- 93
2021-01-08 06:00:00 2.4 11 Nordeste 19 Nordeste 0 941.2 -- 92
2021-01-08 05:00:00 2.5 10 Este 22 Este 0 941.7 -- 90
2021-01-08 04:00:00 2.6 11 Nordeste 19 Nordeste 0 942.7 -- 89
2021-01-08 03:00:00 2.6 10 Nordeste 18 Nordeste 0 942.9 -- 89
2021-01-08 02:00:00 2.7 7 Nordeste 14 Nordeste 0 943.4 -- 89
2021-01-08 01:00:00 2.7 10 Este 17 Este 0 943.8 -- 90
2021-01-08 00:00:00 2.5 9 Nordeste 24 Este 0 944.3 -- 89
2021-01-07 23:00:00 2.5 13 Este 25 Este 0 944.2 -- 87
2021-01-07 22:00:00 2.6 14 Este 26 Nordeste 0 944.5 -- 88
2021-01-07 21:00:00 2.5 16 Nordeste 28 Nordeste 0 944.4 -- 88
2021-01-07 20:00:00 2.8 17 Este 26 Este 0 944.6 -- 88
2021-01-07 19:00:00 2.8 13 Nordeste 22 Nordeste 0 944.8 -- 88
2021-01-07 18:00:00 3.1 14 Nordeste 24 Este 0 944.5 -- 88
2021-01-07 17:00:00 3.8 12 Nordeste 19 Nordeste 0 944.6 -- 89
2021-01-07 16:00:00 4.1 9 Nordeste 18 Nordeste 0 944.3 -- 87
2021-01-07 15:00:00 3.6 11 Nordeste 19 Este 0 944 -- 90
2021-01-07 14:00:00 3.3 12 Este 19 Nordeste 0.1 943.9 -- 92
2021-01-07 13:00:00 3 13 Nordeste 21 Nordeste 0.3 944.6 -- 92
2021-01-07 12:00:00 2.9 7 Nordeste 15 Nordeste 0.5 945.1 -- 94
2021-01-07 11:00:00 2.8 10 Nordeste 16 Este 0.4 944.9 -- 93
2021-01-07 10:00:00 2.3 8 Nordeste 18 Norte 0.1 944.2 -- 95
2021-01-07 09:00:00 2.3 6 Nordeste 17 Nordeste 0.1 943.8 -- 95
2021-01-07 08:00:00 2.4 7 Nordeste 16 Nordeste 0.2 943.2 -- 95
2021-01-07 07:00:00 2.8 8 Nordeste 16 Nordeste 0.2 942.6 -- 96
2021-01-07 06:00:00 2.9 7 Nordeste 13 Nordeste 0.5 942.4 -- 96
2021-01-07 05:00:00 3 4 Nordeste 8 Nordeste 0.6 942.8 -- 97
2021-01-07 04:00:00 3.2 4 Nordeste 7 Nordeste 0.3 943 -- 96
2021-01-07 03:00:00 3.2 3 Nordeste 10 Nordeste 0.2 942.8 -- 95
2021-01-07 02:00:00 3.1 5 Este 13 Este 0.3 943.2 -- 96
2021-01-07 01:00:00 3.1 7 Este 14 Este 0.5 943.8 -- 96
2021-01-07 00:00:00 3.1 7 Este 16 Nordeste 0.7 944.3 -- 93
2021-01-06 23:00:00 3.2 2 Este 9 Este 0.2 944.8 -- 87
2021-01-06 22:00:00 3.3 4 Este 10 Nordeste 0 944.6 -- 83
2021-01-06 21:00:00 3.6 6 Nordeste 10 Nordeste 0 944.7 -- 78
2021-01-06 20:00:00 3.4 4 Norte 8 Nordeste 0 944.9 -- 83
2021-01-06 19:00:00 4 4 Este 8 Este 0 945 -- 76
2021-01-06 18:00:00 5.3 4 Nordeste 11 Nordeste 0 945.3 -- 71
2021-01-06 17:00:00 6.2 5 Nordeste 10 Norte 0 945.2 -- 65
2021-01-06 16:00:00 6.3 6 Nordeste 13 Este 0 945.3 -- 65
2021-01-06 15:00:00 6.3 8 Nordeste 14 Nordeste 0 945 -- 59
2021-01-06 14:00:00 5.3 5 Nordeste 9 Este 0 946.2 -- 66
2021-01-06 13:00:00 3.3 4 Nordeste 8 Nordeste 0 946.7 -- 74
2021-01-06 12:00:00 0.2 0 Calma 5 Noroeste 0.1 947.9 -- 88
2021-01-06 11:00:00 -1.4 3 Noroeste 5 Noroeste 0 948.2 -- 89
2021-01-06 10:00:00 -3 3 Oeste 5 Oeste 0 947.9 -- 93
2021-01-06 09:00:00 -5.1 3 Noroeste 6 Noroeste 0 947.2 -- 92
2021-01-06 08:00:00 -5.1 4 Noroeste 6 Noroeste 0 947.1 -- 92
2021-01-06 07:00:00 -4.4 5 Noroeste 6 Noroeste 0 946.4 -- 92
2021-01-06 06:00:00 -4 3 Noroeste 4 Noroeste 0 946 -- 93
2021-01-06 05:00:00 -4 0 Calma 4 Norte 0 945.7 -- 93
2021-01-06 04:00:00 -3.8 4 Noroeste 9 Norte 0 946.1 -- 92
2021-01-06 03:00:00 -3.2 5 Noroeste 7 Noroeste 0 946.1 -- 92
2021-01-06 02:00:00 -2.1 4 Noroeste 5 Noroeste 0 945.9 -- 93
2021-01-06 01:00:00 -1.5 4 Oeste 4 Oeste 0 945.9 -- 95
2021-01-06 00:00:00 -1.8 0 Calma 5 Nordeste 0 945.9 -- 92
2021-01-05 23:00:00 -1 0 Calma 9 Nordeste 0 946 -- 91
2021-01-05 22:00:00 1.2 6 Nordeste 9 Nordeste 0 945.9 -- 87
2021-01-05 21:00:00 0.1 5 Norte 8 Norte 0 945.7 -- 94
2021-01-05 20:00:00 0.5 5 Norte 11 Norte 0 945.9 -- 86
2021-01-05 19:00:00 3 8 Nordeste 12 Nordeste 0 945.5 -- 76
2021-01-05 18:00:00 3.1 8 Norte 11 Norte 0 945 -- 85
2021-01-05 17:00:00 4.9 8 Norte 12 Norte 0 945.2 -- 81
2021-01-05 16:00:00 5 5 Nordeste 12 Norte 0 945.3 -- 83
2021-01-05 15:00:00 2.5 5 Norte 10 Norte 0 945.8 -- 97
2021-01-05 14:00:00 1.8 3 Norte 10 Norte 0 946.3 -- 98
2021-01-05 13:00:00 1.7 4 Nordeste 9 Nordeste 0 947 -- 98
2021-01-05 12:00:00 -0.5 5 Norte 8 Norte 0 948 -- 98
2021-01-05 11:00:00 -1.7 4 Nordeste 7 Nordeste 0.1 948.4 -- 97
2021-01-05 10:00:00 -2.7 0 Calma 4 Nordeste 0 948.2 -- 97
2021-01-05 09:00:00 -3.1 3 Sudeste 7 Sudeste 0 947.7 -- 97
2021-01-05 08:00:00 -3.4 4 Sudeste 5 Sur 0 947.1 -- 97
2021-01-05 07:00:00 -3.2 4 Sudeste 6 Este 0 947 -- 97
2021-01-05 06:00:00 -2.4 5 Este 9 Nordeste 0 946.6 -- 97
2021-01-05 05:00:00 -1.6 0 Calma 7 Sudeste 0 946.8 -- 97
2021-01-05 04:00:00 -0.4 5 Sudeste 8 Este 0 947.1 -- 97
2021-01-05 03:00:00 0.9 5 Sudeste 8 Sur 0 947 -- 95
2021-01-05 02:00:00 1.2 6 Sur 9 Sur 0 947.1 -- 95
2021-01-05 01:00:00 1.3 6 Sur 10 Sudeste 0 947.6 -- 96
2021-01-05 00:00:00 1.1 9 Sur 12 Sur 0 947.8 -- 96
2021-01-04 23:00:00 0.8 5 Este 22 Norte 0 948.1 -- 93
2021-01-04 22:00:00 1.3 5 Oeste 7 Oeste 0 947.7 -- 92
2021-01-04 21:00:00 2.5 8 Sudoeste 15 Sudoeste 0 947.8 -- 93
2021-01-04 20:00:00 2.7 6 Oeste 7 Oeste 0 947.7 -- 91
2021-01-04 19:00:00 3 6 Oeste 14 Noroeste 0 947.5 -- 90
2021-01-04 18:00:00 4.2 11 Noroeste 16 Oeste 0 946.9 -- 87
2021-01-04 17:00:00 7.2 12 Noroeste 25 Oeste 0 946.5 -- 77
2021-01-04 16:00:00 8.2 20 Oeste 32 Oeste 0 946.6 -- 70
2021-01-04 15:00:00 7.7 22 Oeste 30 Oeste 0 946.9 -- 79
2021-01-04 14:00:00 6.3 19 Oeste 30 Oeste 0 947.3 -- 81
2021-01-04 13:00:00 5.2 13 Oeste 21 Oeste 0 948.5 -- 85
2021-01-04 12:00:00 4.5 12 Oeste 19 Oeste 0 949.3 -- 87
2021-01-04 11:00:00 3.6 10 Oeste 14 Oeste 0 949.8 -- 92
2021-01-04 10:00:00 2.2 5 Oeste 17 Oeste 0 949.9 -- 94
2021-01-04 09:00:00 0.5 7 Oeste 14 Oeste 0 949.6 -- 96
2021-01-04 08:00:00 -0.8 9 Sudoeste 13 Oeste 0 949.6 -- 94
2021-01-04 07:00:00 -0.7 8 Oeste -- -- -- 949.6 -- 95
2021-01-04 06:00:00 -- -- -- -- -- -- -- -- --
2021-01-04 05:00:00 -- -- -- -- -- -- -- -- --
2021-01-04 04:00:00 -- -- -- -- -- -- -- -- --
2021-01-04 03:00:00 -- -- -- -- -- -- -- -- --
2021-01-04 02:00:00 -- -- -- -- -- -- -- -- --
2021-01-04 01:00:00 -- -- -- -- -- -- -- -- --
2021-01-04 00:00:00 0.8 3 Noroeste 12 Sudoeste 0 951.5 -- 87
2021-01-03 23:00:00 0.5 4 Sudoeste 11 Sudoeste 0 951.9 -- 86
2021-01-03 22:00:00 0.8 6 Sudoeste 12 Sudoeste 0 952.1 -- 84
2021-01-03 21:00:00 1.5 9 Sudoeste 15 Oeste 0 952.3 -- 80
2021-01-03 20:00:00 1.9 9 Oeste 15 Oeste 0 952.1 -- 78
2021-01-03 19:00:00 2.9 7 Oeste 14 Oeste 0 951.5 -- 76
2021-01-03 18:00:00 5.8 13 Oeste 19 Oeste 0 951.5 -- 63
2021-01-03 17:00:00 7.9 14 Oeste 22 Oeste 0 951.5 -- 52
2021-01-03 16:00:00 8.1 12 Noroeste 20 Noroeste 0 951.7 -- 50
2021-01-03 15:00:00 7.6 14 Noroeste 20 Noroeste 0 951.8 -- 55
2021-01-03 14:00:00 6.7 10 Noroeste 22 Noroeste 0 952.2 -- 59
2021-01-03 13:00:00 5.9 11 Oeste 17 Noroeste 0 953.1 -- 62
2021-01-03 12:00:00 4.6 10 Oeste 15 Oeste 0 953.7 -- 68
2021-01-03 11:00:00 2.7 10 Oeste 14 Oeste 0 953.9 -- 75
2021-01-03 10:00:00 0.7 5 Sudoeste 13 Sudoeste 0 953.7 -- 82
2021-01-03 09:00:00 -2.3 6 Oeste 10 Oeste 0 953.7 -- 85
2021-01-03 08:00:00 -2.6 4 Sur 7 Sudoeste 0 953.3 -- 85
2021-01-03 07:00:00 -2.6 5 Oeste 11 Sudoeste 0 952.8 -- 84
2021-01-03 06:00:00 -2.4 6 Sudoeste 10 Oeste 0 952.9 -- 84
2021-01-03 05:00:00 -2.1 6 Sudoeste 13 Sudoeste 0 953 -- 85
2021-01-03 04:00:00 -2.2 5 Sudoeste 10 Sudoeste 0 953 -- 87
2021-01-03 03:00:00 -2.1 7 Oeste 10 Oeste 0 952.9 -- 86
2021-01-03 02:00:00 -2.5 7 Oeste 12 Oeste 0 952.8 -- 86
2021-01-03 01:00:00 -1.8 5 Oeste 10 Noroeste 0 952.9 -- 87
2021-01-03 00:00:00 -1.6 9 Noroeste 12 Noroeste 0 953.1 -- 84
2021-01-02 23:00:00 0 9 Noroeste 15 Oeste 0 952.8 -- 81
2021-01-02 22:00:00 0.9 7 Oeste 18 Oeste 0 952.4 -- 76
2021-01-02 21:00:00 0.4 10 Noroeste 13 Noroeste 0 952.1 -- 81
2021-01-02 20:00:00 0.9 6 Noroeste 10 Noroeste 0 951.8 -- 78
2021-01-02 19:00:00 1.3 9 Noroeste 14 Noroeste 0 951.7 -- 79
2021-01-02 18:00:00 3.2 11 Noroeste 17 Noroeste 0 951.3 -- 76
2021-01-02 17:00:00 5.7 15 Noroeste 25 Noroeste 0 950.6 -- 61
2021-01-02 16:00:00 6 17 Noroeste 27 Noroeste 0 950.5 -- 63
2021-01-02 15:00:00 6.2 16 Noroeste 23 Noroeste 0 950.2 -- 61
2021-01-02 14:00:00 5.3 9 Noroeste 22 Norte 0 950.8 -- 62